Hourly Weather Jerez de la Frontera

Today, 29 September, Tuesday

Time Temperature Precipitation Wind Pressure Humidity
00:00 +22°C° 0 mm 3 mps 757 mmHg 47%
01:00 +21°C° 0 mm 3 mps 757 mmHg 46%
02:00 +21°C° 0 mm 2 mps 757 mmHg 45%
03:00 +21°C° 0 mm 2 mps 757 mmHg 45%
04:00 +20°C° 0 mm 2 mps 757 mmHg 45%
05:00 +20°C° 0 mm 2 mps 757 mmHg 46%
06:00 +20°C° 0 mm 2 mps 757 mmHg 46%
07:00 +23°C° 0 mm 2 mps 757 mmHg 42%
08:00 +25°C° 0 mm 2 mps 758 mmHg 38%
09:00 +27°C° 0 mm 2 mps 758 mmHg 34%
10:00 +28°C° 0 mm 3 mps 758 mmHg 31%
11:00 +30°C° 0 mm 3 mps 758 mmHg 28%
12:00 +33°C° 0 mm 3 mps 758 mmHg 25%
13:00 +33°C° 0 mm 3 mps 757 mmHg 25%
14:00 +33°C° 0 mm 3 mps 757 mmHg 24%
15:00 +33°C° 0 mm 4 mps 756 mmHg 24%
16:00 +31°C° 0 mm 3 mps 756 mmHg 28%
17:00 +29°C° 0 mm 3 mps 756 mmHg 31%
18:00 +27°C° 0 mm 3 mps 756 mmHg 34%
19:00 +26°C° 0 mm 3 mps 757 mmHg 37%
20:00 +25°C° 0 mm 3 mps 757 mmHg 41%
21:00 +24°C° 0 mm 3 mps 758 mmHg 44%
22:00 +24°C° 0 mm 3 mps 758 mmHg 47%
23:00 +22°C° 0 mm 3 mps 758 mmHg 49%

Tomorrow, 30 September, Wednesday

Time Temperature Precipitation Wind Pressure Humidity
00:00 +22°C° 0 mm 3 mps 758 mmHg 51%
01:00 +21°C° 0 mm 3 mps 758 mmHg 51%
02:00 +21°C° 0 mm 3 mps 757 mmHg 51%
03:00 +21°C° 0 mm 2 mps 757 mmHg 51%
04:00 +21°C° 0 mm 2 mps 757 mmHg 51%
05:00 +20°C° 0 mm 2 mps 757 mmHg 52%
06:00 +20°C° 0 mm 2 mps 757 mmHg 53%
07:00 +23°C° 0 mm 2 mps 758 mmHg 50%
08:00 +24°C° 0 mm 2 mps 758 mmHg 47%
09:00 +25°C° 0 mm 1 mps 758 mmHg 44%
10:00 +27°C° 0 mm 2 mps 758 mmHg 41%
11:00 +28°C° 0 mm 3 mps 758 mmHg 39%
12:00 +29°C° 0 mm 3 mps 758 mmHg 36%
13:00 +29°C° 0 mm 3 mps 757 mmHg 37%
14:00 +29°C° 0 mm 4 mps 757 mmHg 38%
15:00 +29°C° 0 mm 4 mps 757 mmHg 40%
16:00 +28°C° 0 mm 4 mps 757 mmHg 45%
17:00 +26°C° 0 mm 4 mps 757 mmHg 51%
18:00 +25°C° 0 mm 4 mps 756 mmHg 57%
19:00 +24°C° 0 mm 3 mps 757 mmHg 60%
20:00 +24°C° 0 mm 3 mps 757 mmHg 63%
21:00 +22°C° 0 mm 3 mps 758 mmHg 66%
22:00 +21°C° 0 mm 3 mps 758 mmHg 64%
23:00 +21°C° 0 mm 3 mps 758 mmHg 62%

Day after tomorrow, 1 October, Thursday

Time Temperature Precipitation Wind Pressure Humidity
00:00 +20°C° 0 mm 4 mps 757 mmHg 60%
01:00 +20°C° 0 mm 4 mps 757 mmHg 61%
02:00 +19°C° 0 mm 3 mps 757 mmHg 61%
03:00 +18°C° 0 mm 3 mps 757 mmHg 62%
04:00 +18°C° 0 mm 4 mps 757 mmHg 65%
05:00 +17°C° 0 mm 4 mps 757 mmHg 67%
06:00 +15°C° 0 mm 4 mps 757 mmHg 70%
07:00 +18°C° 0 mm 4 mps 757 mmHg 63%
08:00 +19°C° 0 mm 4 mps 757 mmHg 56%
09:00 +21°C° 0 mm 4 mps 758 mmHg 50%
10:00 +23°C° 0 mm 4 mps 757 mmHg 45%
11:00 +26°C° 0 mm 4 mps 757 mmHg 41%
12:00 +28°C° 0 mm 4 mps 757 mmHg 37%
13:00 +28°C° 0 mm 5 mps 757 mmHg 40%
14:00 +28°C° 0 mm 6 mps 756 mmHg 42%
15:00 +28°C° 0 mm 7 mps 756 mmHg 44%
16:00 +27°C° 0 mm 7 mps 755 mmHg 53%
17:00 +24°C° 0 mm 6 mps 755 mmHg 61%
18:00 +22°C° 0 mm 6 mps 755 mmHg 70%
19:00 +22°C° 0 mm 6 mps 755 mmHg 70%
20:00 +22°C° 0 mm 6 mps 756 mmHg 70%
21:00 +22°C° 0 mm 5 mps 756 mmHg 69%
22:00 +21°C° 0 mm 5 mps 756 mmHg 71%
23:00 +21°C° 0 mm 5 mps 755 mmHg 72%

2 October, Friday

Time Temperature Precipitation Wind Pressure Humidity
00:00 +20°C° 0 mm 5 mps 755 mmHg 74%
01:00 +19°C° 0 mm 5 mps 755 mmHg 78%
02:00 +19°C° 0 mm 4 mps 754 mmHg 82%
03:00 +18°C° 0 mm 4 mps 754 mmHg 86%
04:00 +19°C° 0 mm 4 mps 754 mmHg 83%
05:00 +19°C° 0 mm 5 mps 754 mmHg 80%
06:00 +19°C° 0 mm 5 mps 754 mmHg 77%
07:00 +20°C° 0 mm 6 mps 753 mmHg 73%
08:00 +20°C° 0 mm 6 mps 753 mmHg 69%
09:00 +21°C° 0 mm 6 mps 753 mmHg 64%
10:00 +22°C° 0 mm 8 mps 752 mmHg 64%
11:00 +22°C° 0 mm 9 mps 752 mmHg 64%
12:00 +23°C° 0 mm 10 mps 751 mmHg 64%
13:00 +22°C° 0.4 mm 9 mps 751 mmHg 66%
14:00 +22°C° 0.4 mm 9 mps 751 mmHg 68%
15:00 +21°C° 0.4 mm 8 mps 750 mmHg 70%
16:00 +21°C° 0 mm 8 mps 751 mmHg 63%
17:00 +21°C° 0 mm 7 mps 751 mmHg 56%
18:00 +21°C° 0 mm 7 mps 751 mmHg 49%
19:00 +20°C° 0 mm 7 mps 752 mmHg 47%
20:00 +18°C° 0 mm 7 mps 752 mmHg 46%
21:00 +17°C° 0 mm 7 mps 753 mmHg 45%
22:00 +16°C° 0 mm 7 mps 753 mmHg 49%
23:00 +15°C° 0 mm 7 mps 754 mmHg 53%

3 October, Saturday

Time Temperature Precipitation Wind Pressure Humidity
00:00 +14°C° 0 mm 6 mps 754 mmHg 57%
01:00 +14°C° 0 mm 6 mps 754 mmHg 59%
02:00 +13°C° 0 mm 6 mps 754 mmHg 61%
03:00 +12°C° 0 mm 5 mps 754 mmHg 62%
04:00 +12°C° 0 mm 5 mps 754 mmHg 64%
05:00 +11°C° 0 mm 4 mps 755 mmHg 66%
06:00 +11°C° 0 mm 3 mps 755 mmHg 69%
07:00 +12°C° 0 mm 4 mps 755 mmHg 63%
08:00 +14°C° 0 mm 4 mps 756 mmHg 57%
09:00 +17°C° 0 mm 4 mps 756 mmHg 52%
10:00 +18°C° 0 mm 4 mps 756 mmHg 47%
11:00 +19°C° 0 mm 5 mps 756 mmHg 42%
12:00 +21°C° 0 mm 5 mps 756 mmHg 38%
13:00 +21°C° 0 mm 6 mps 755 mmHg 37%
14:00 +21°C° 0 mm 6 mps 755 mmHg 37%
15:00 +21°C° 0 mm 6 mps 755 mmHg 36%
16:00 +21°C° 0 mm 6 mps 755 mmHg 42%
17:00 +20°C° 0 mm 6 mps 755 mmHg 49%
18:00 +19°C° 0 mm 6 mps 756 mmHg 55%
19:00 +17°C° 0 mm 5 mps 756 mmHg 57%
20:00 +18°C° 0 mm 4 mps 757 mmHg 59%
21:00 +17°C° 0 mm 3 mps 757 mmHg 61%
22:00 +17°C° 0 mm 3 mps 757 mmHg 60%
23:00 +15°C° 0 mm 4 mps 757 mmHg 58%

4 October, Sunday

Time Temperature Precipitation Wind Pressure Humidity
00:00 +15°C° 0 mm 4 mps 757 mmHg 57%
01:00 +14°C° 0 mm 4 mps 757 mmHg 59%
02:00 +13°C° 0 mm 3 mps 757 mmHg 62%
03:00 +13°C° 0 mm 3 mps 757 mmHg 64%
04:00 +12°C° 0 mm 3 mps 757 mmHg 67%
05:00 +12°C° 0 mm 3 mps 758 mmHg 69%
06:00 +11°C° 0 mm 3 mps 758 mmHg 72%
07:00 +13°C° 0 mm 3 mps 758 mmHg 66%
08:00 +14°C° 0 mm 3 mps 758 mmHg 60%
09:00 +17°C° 0 mm 3 mps 759 mmHg 54%
10:00 +18°C° 0 mm 3 mps 758 mmHg 51%
11:00 +20°C° 0 mm 3 mps 758 mmHg 48%
12:00 +21°C° 0 mm 4 mps 758 mmHg 45%
13:00 +21°C° 0 mm 4 mps 758 mmHg 47%
14:00 +22°C° 0 mm 5 mps 758 mmHg 49%
15:00 +22°C° 0 mm 5 mps 757 mmHg 52%
16:00 +21°C° 0 mm 5 mps 757 mmHg 59%
17:00 +21°C° 0 mm 5 mps 757 mmHg 66%
18:00 +20°C° 0 mm 5 mps 757 mmHg 73%
19:00 +20°C° 0 mm 5 mps 758 mmHg 77%
20:00 +20°C° 0 mm 4 mps 758 mmHg 81%
21:00 +20°C° 0 mm 4 mps 758 mmHg 85%
22:00 +20°C° 0.1 mm 4 mps 758 mmHg 84%
23:00 +19°C° 0.1 mm 4 mps 758 mmHg 84%
Show more